Location: Unspecified
(0.0000°N, 0.0000°E)
Time: 13:54:01
(UTC+00:00)

ISS - Pass Details

Date: 13 September 2019
Orbit: 411 x 421 km, 51.6° (Epoch: 18 September)

Event Time Altitude Azimuth Distance (km) Brightness Sun altitude
Rises 18:24:23 0° 189° (S) 2,345 0.1 -7.1°
Reaches altitude 10° 18:27:03 10° 166° (SSE) 1,479 -1.2 -7.8°
Maximum altitude 18:29:11 16° 126° (SE) 1,168 -2.0 -8.3°
Enters shadow 18:30:53 12° 92° (E) 1,370 -1.8 -8.7°
